WZZ6306 LHBP-LIMJ

Flight info

Callsign WZZ6306
Flight time 1h 26m
Altitude 38000
Route GILEP DCT ZOLKU DCT SUBES DCT SUNIS DCT RADLY DCT RIFEN DCT AKADO DCT NISIL DCT BEROK DCT MIVKI M730 KALMO
Aircraft A320/M-SDE1E2E3FGIJ1J4RWXY/LB1

Departure

Time 2026-05-08 18:02
Airport Budapest Liszt Ferenc International Airport (LHBP)

Arrival

Time 2026-05-08 19:28
Airport Genoa Cristoforo Colombo Airport (LIMJ)
Time Latitude Longitude Altitude Speed Heading
2026-05-08 17:31 47.43388 19.25794 423 ft 0 kts 222°
2026-05-08 17:32 47.43388 19.25795 423 ft 0 kts 222°
2026-05-08 17:50 47.43400 19.25811 436 ft 2 kts 222°
2026-05-08 17:50 47.43412 19.25827 424 ft 2 kts 222°
2026-05-08 17:50 47.43423 19.25841 426 ft 1 kts 222°
2026-05-08 17:51 47.43428 19.25849 424 ft 1 kts 223°
2026-05-08 17:51 47.43433 19.25857 421 ft 1 kts 242°
2026-05-08 17:51 47.43436 19.25867 421 ft 1 kts 260°
2026-05-08 17:51 47.43437 19.25878 425 ft 1 kts 266°
2026-05-08 17:52 47.43438 19.25890 423 ft 1 kts 256°
2026-05-08 17:52 47.43440 19.25900 424 ft 1 kts 259°
2026-05-08 17:52 47.43440 19.25916 419 ft 0 kts 288°
2026-05-08 17:55 47.43441 19.25914 418 ft 1 kts 291°
2026-05-08 17:55 47.43449 19.25893 425 ft 4 kts 301°
2026-05-08 17:55 47.43470 19.25852 432 ft 6 kts 307°
2026-05-08 17:56 47.43465 19.25799 436 ft 6 kts 239°
2026-05-08 17:56 47.43430 19.25747 436 ft 8 kts 221°
2026-05-08 17:56 47.43381 19.25681 423 ft 11 kts 221°
2026-05-08 17:56 47.43370 19.25668 432 ft 2 kts 222°
2026-05-08 17:57 47.43352 19.25643 428 ft 5 kts 222°
2026-05-08 17:57 47.43321 19.25602 432 ft 7 kts 222°
2026-05-08 17:57 47.43299 19.25532 423 ft 9 kts 272°
2026-05-08 17:57 47.43332 19.25446 425 ft 11 kts 301°
2026-05-08 17:58 47.43311 19.25345 432 ft 12 kts 223°
2026-05-08 17:58 47.43247 19.25258 433 ft 14 kts 223°
2026-05-08 17:58 47.43170 19.25154 434 ft 16 kts 223°
2026-05-08 17:58 47.43160 19.25140 435 ft 0 kts 222°
2026-05-08 18:00 47.43147 19.25123 438 ft 6 kts 222°
2026-05-08 18:01 47.43107 19.25055 444 ft 10 kts 256°
2026-05-08 18:01 47.43108 19.24933 447 ft 17 kts 300°
2026-05-08 18:01 47.43254 19.24692 441 ft 61 kts 312°
2026-05-08 18:01 47.43692 19.23987 430 ft 122 kts 312°
2026-05-08 18:02 47.44379 19.22885 436 ft 168 kts 314°
2026-05-08 18:02 47.44928 19.22034 811 ft 166 kts 314°
2026-05-08 18:02 47.45967 19.20405 1697 ft 165 kts 313°
2026-05-08 18:02 47.46749 19.19133 2273 ft 171 kts 312°
2026-05-08 18:03 47.47561 19.17777 2807 ft 182 kts 313°
2026-05-08 18:03 47.48400 19.16282 3247 ft 198 kts 304°
2026-05-08 18:03 47.49021 19.14345 3666 ft 218 kts 287°
2026-05-08 18:03 47.49262 19.12053 4204 ft 236 kts 270°
2026-05-08 18:04 47.49012 19.09574 4830 ft 254 kts 252°
2026-05-08 18:04 47.48184 19.07190 5483 ft 269 kts 233°
2026-05-08 18:04 47.46795 19.05291 6348 ft 276 kts 212°
2026-05-08 18:04 47.45019 19.04209 7249 ft 279 kts 192°
2026-05-08 18:05 47.43071 19.04039 8004 ft 286 kts 180°
2026-05-08 18:05 47.41110 19.03766 8034 ft 282 kts 193°
2026-05-08 18:05 47.39253 19.02853 8520 ft 283 kts 206°
2026-05-08 18:05 47.37477 19.01569 9400 ft 286 kts 207°
2026-05-08 18:06 47.35684 19.00282 10234 ft 290 kts 207°
2026-05-08 18:06 47.34455 18.99402 10550 ft 301 kts 207°
2026-05-08 18:06 47.32583 18.97862 10960 ft 316 kts 219°
2026-05-08 18:06 47.31120 18.95384 11405 ft 328 kts 242°
2026-05-08 18:07 47.30415 18.92182 12077 ft 333 kts 263°
2026-05-08 18:07 47.30589 18.88776 12827 ft 338 kts 285°
2026-05-08 18:07 47.31573 18.85610 13556 ft 344 kts 297°
2026-05-08 18:07 47.32758 18.82466 14219 ft 348 kts 297°
2026-05-08 18:08 47.33948 18.79340 14872 ft 351 kts 297°
2026-05-08 18:08 47.35147 18.76196 15539 ft 354 kts 297°
2026-05-08 18:08 47.36355 18.73020 16190 ft 356 kts 297°
2026-05-08 18:08 47.37570 18.69816 16835 ft 359 kts 297°
2026-05-08 18:09 47.38788 18.66582 17501 ft 362 kts 297°
2026-05-08 18:09 47.40010 18.63330 18155 ft 365 kts 297°
2026-05-08 18:09 47.41224 18.60026 18748 ft 367 kts 294°
2026-05-08 18:09 47.42118 18.56516 19340 ft 368 kts 285°
2026-05-08 18:10 47.42859 18.52883 19932 ft 372 kts 285°
2026-05-08 18:10 47.43597 18.49261 20506 ft 375 kts 285°
2026-05-08 18:10 47.44352 18.45559 21082 ft 377 kts 285°
2026-05-08 18:10 47.45123 18.41783 21641 ft 381 kts 285°
2026-05-08 18:11 47.45878 18.38075 22176 ft 384 kts 285°
2026-05-08 18:11 47.46658 18.34230 22738 ft 387 kts 285°
2026-05-08 18:11 47.47416 18.30477 23267 ft 390 kts 285°
2026-05-08 18:11 47.48195 18.26612 23765 ft 393 kts 285°
2026-05-08 18:12 47.48940 18.22713 24228 ft 395 kts 283°
2026-05-08 18:12 47.49618 18.18774 24695 ft 396 kts 282°
2026-05-08 18:12 47.50257 18.14800 25174 ft 397 kts 281°
2026-05-08 18:12 47.50881 18.10811 25640 ft 398 kts 281°
2026-05-08 18:13 47.51506 18.06818 26098 ft 399 kts 281°
2026-05-08 18:13 47.52144 18.02814 26554 ft 400 kts 281°
2026-05-08 18:13 47.52794 17.98808 26994 ft 401 kts 281°
2026-05-08 18:13 47.53449 17.94789 27426 ft 402 kts 281°
2026-05-08 18:14 47.54109 17.90763 27857 ft 403 kts 281°
2026-05-08 18:14 47.54683 17.86699 28288 ft 403 kts 275°
2026-05-08 18:14 47.54791 17.82577 28699 ft 401 kts 265°
2026-05-08 18:14 47.54389 17.78506 29123 ft 401 kts 255°
2026-05-08 18:15 47.53482 17.74595 29533 ft 402 kts 245°
2026-05-08 18:15 47.52196 17.70918 29928 ft 404 kts 243°
2026-05-08 18:15 47.50880 17.67245 30280 ft 405 kts 243°
2026-05-08 18:15 47.49566 17.63554 30601 ft 407 kts 243°
2026-05-08 18:16 47.48266 17.59886 30910 ft 408 kts 243°
2026-05-08 18:16 47.46948 17.56165 31217 ft 410 kts 243°
2026-05-08 18:16 47.45624 17.52439 31518 ft 411 kts 242°
2026-05-08 18:16 47.44288 17.48703 31925 ft 409 kts 242°
2026-05-08 18:17 47.42958 17.45004 32366 ft 408 kts 242°
2026-05-08 18:17 47.41745 17.41232 32806 ft 406 kts 248°
2026-05-08 18:17 47.40759 17.37339 33240 ft 405 kts 249°
2026-05-08 18:17 47.39776 17.33449 33653 ft 403 kts 248°
2026-05-08 18:18 47.38795 17.29583 34072 ft 402 kts 248°
2026-05-08 18:18 47.37810 17.25717 34424 ft 402 kts 248°
2026-05-08 18:18 47.36825 17.21866 34731 ft 402 kts 249°
2026-05-08 18:18 47.35836 17.18006 35017 ft 403 kts 249°
2026-05-08 18:19 47.34843 17.14139 35289 ft 404 kts 249°
2026-05-08 18:19 47.33847 17.10259 35552 ft 405 kts 249°
2026-05-08 18:19 47.32852 17.06381 35821 ft 405 kts 249°
2026-05-08 18:19 47.31853 17.02490 36088 ft 406 kts 249°
2026-05-08 18:20 47.30849 16.98593 36337 ft 407 kts 249°
2026-05-08 18:20 47.29841 16.94700 36582 ft 408 kts 249°
2026-05-08 18:20 47.28826 16.90795 36826 ft 408 kts 249°
2026-05-08 18:20 47.27810 16.86889 37062 ft 409 kts 249°
2026-05-08 18:21 47.26792 16.82973 37297 ft 409 kts 249°
2026-05-08 18:21 47.25773 16.79057 37532 ft 410 kts 249°
2026-05-08 18:21 47.24753 16.75144 37763 ft 410 kts 249°
2026-05-08 18:21 47.23730 16.71222 37981 ft 411 kts 250°
2026-05-08 18:22 47.21669 16.63345 38066 ft 412 kts 249°
2026-05-08 18:22 47.19604 16.55480 38064 ft 412 kts 250°
2026-05-08 18:23 47.17540 16.47619 38063 ft 412 kts 249°
2026-05-08 18:23 47.15480 16.39830 38069 ft 412 kts 249°
2026-05-08 18:24 47.13020 16.32171 38067 ft 414 kts 239°
2026-05-08 18:24 47.09963 16.25023 38065 ft 414 kts 239°
2026-05-08 18:25 47.06922 16.17918 38065 ft 414 kts 239°
2026-05-08 18:25 47.03862 16.10769 38068 ft 414 kts 239°
2026-05-08 18:26 47.00797 16.03621 38067 ft 415 kts 239°
2026-05-08 18:26 46.97724 15.96486 38075 ft 415 kts 239°
2026-05-08 18:27 46.95132 15.90494 38071 ft 415 kts 239°
2026-05-08 18:27 46.91548 15.82213 38073 ft 415 kts 239°
2026-05-08 18:28 46.88467 15.75121 38067 ft 415 kts 238°
2026-05-08 18:28 46.85356 15.67962 38065 ft 416 kts 238°
2026-05-08 18:29 46.82249 15.60829 38064 ft 416 kts 238°
2026-05-08 18:29 46.79138 15.53725 38063 ft 416 kts 238°
2026-05-08 18:30 46.76019 15.46612 38063 ft 416 kts 238°
2026-05-08 18:30 46.72891 15.39488 38063 ft 417 kts 238°
2026-05-08 18:31 46.69768 15.32410 38063 ft 417 kts 238°
2026-05-08 18:31 46.66614 15.25288 38062 ft 417 kts 238°
2026-05-08 18:32 46.63449 15.18210 38059 ft 418 kts 237°
2026-05-08 18:32 46.60146 15.11252 38061 ft 418 kts 236°
2026-05-08 18:33 46.56775 15.04346 38064 ft 419 kts 236°
2026-05-08 18:33 46.53437 14.97473 38066 ft 419 kts 236°
2026-05-08 18:34 46.50093 14.90539 38064 ft 419 kts 236°
2026-05-08 18:34 46.46751 14.83604 38065 ft 419 kts 236°
2026-05-08 18:35 46.43405 14.76684 38054 ft 420 kts 236°
2026-05-08 18:35 46.40041 14.69754 38050 ft 420 kts 236°
2026-05-08 18:36 46.36685 14.62854 38048 ft 420 kts 236°
2026-05-08 18:36 46.33315 14.55955 38039 ft 420 kts 235°
2026-05-08 18:37 46.29939 14.49055 38044 ft 420 kts 236°
2026-05-08 18:37 46.26563 14.42158 38047 ft 420 kts 236°
2026-05-08 18:38 46.23178 14.35276 38051 ft 420 kts 236°
2026-05-08 18:38 46.19788 14.28404 38053 ft 420 kts 236°
2026-05-08 18:39 46.16402 14.21536 38045 ft 420 kts 236°
2026-05-08 18:39 46.13007 14.14674 38046 ft 420 kts 236°
2026-05-08 18:40 46.09601 14.07828 38046 ft 420 kts 235°
2026-05-08 18:40 46.06188 14.00976 38045 ft 420 kts 236°
2026-05-08 18:41 46.02784 13.94138 38047 ft 420 kts 236°
2026-05-08 18:41 45.99371 13.87317 38044 ft 420 kts 235°
2026-05-08 18:42 45.95958 13.80508 38032 ft 420 kts 236°
2026-05-08 18:42 45.92546 13.73710 38025 ft 419 kts 236°
2026-05-08 18:43 45.89129 13.66930 38020 ft 419 kts 235°
2026-05-08 18:43 45.85699 13.60144 38015 ft 420 kts 236°
2026-05-08 18:44 45.82354 13.53292 38019 ft 419 kts 238°
2026-05-08 18:44 45.79174 13.46374 38020 ft 419 kts 238°
2026-05-08 18:45 45.75963 13.39400 38018 ft 419 kts 238°
2026-05-08 18:45 45.72721 13.32469 38030 ft 419 kts 237°
2026-05-08 18:46 45.69458 13.25565 38032 ft 419 kts 237°
2026-05-08 18:46 45.66193 13.18674 38032 ft 418 kts 237°
2026-05-08 18:47 45.62937 13.11794 38035 ft 418 kts 237°
2026-05-08 18:47 45.59668 13.04913 38039 ft 418 kts 238°
2026-05-08 18:48 45.56407 12.98057 38042 ft 418 kts 238°
2026-05-08 18:48 45.53143 12.91198 38039 ft 417 kts 238°
2026-05-08 18:49 45.49878 12.84359 38032 ft 417 kts 238°
2026-05-08 18:49 45.46610 12.77530 38029 ft 417 kts 238°
2026-05-08 18:50 45.43335 12.70718 38031 ft 417 kts 238°
2026-05-08 18:50 45.40613 12.65064 38031 ft 416 kts 238°
2026-05-08 18:51 45.36811 12.57179 38031 ft 416 kts 238°
2026-05-08 18:51 45.33591 12.50297 38027 ft 414 kts 244°
2026-05-08 18:52 45.31453 12.42804 38024 ft 412 kts 251°
2026-05-08 18:52 45.29457 12.35172 38024 ft 412 kts 251°
2026-05-08 18:53 45.27453 12.27564 38027 ft 412 kts 251°
2026-05-08 18:53 45.25442 12.19948 38027 ft 412 kts 251°
2026-05-08 18:54 45.23424 12.12332 38036 ft 412 kts 251°
2026-05-08 18:54 45.21402 12.04745 38039 ft 411 kts 251°
2026-05-08 18:55 45.18702 11.94655 38037 ft 411 kts 251°
2026-05-08 18:56 45.16680 11.87079 38034 ft 411 kts 251°
2026-05-08 18:56 45.14657 11.79518 38036 ft 410 kts 251°
2026-05-08 18:57 45.12621 11.71958 38041 ft 410 kts 251°
2026-05-08 18:57 45.10578 11.64426 38042 ft 410 kts 251°
2026-05-08 18:58 45.08531 11.56890 38044 ft 409 kts 251°
2026-05-08 18:58 45.06490 11.49372 38044 ft 409 kts 250°
2026-05-08 18:59 45.04441 11.41867 38043 ft 409 kts 251°
2026-05-08 18:59 45.02393 11.34369 38046 ft 409 kts 250°
2026-05-08 19:00 45.00328 11.26855 38047 ft 410 kts 250°
2026-05-08 19:00 44.97543 11.19834 38041 ft 415 kts 232°
2026-05-08 19:01 44.93151 11.14451 38031 ft 422 kts 220°
2026-05-08 19:01 44.88446 11.09523 38030 ft 421 kts 221°
2026-05-08 19:02 44.83744 11.04575 38038 ft 421 kts 220°
2026-05-08 19:02 44.79049 10.99653 38036 ft 421 kts 220°
2026-05-08 19:03 44.74346 10.94740 38044 ft 421 kts 220°
2026-05-08 19:03 44.69648 10.89838 37950 ft 421 kts 220°
2026-05-08 19:03 44.67335 10.87431 37681 ft 419 kts 220°
2026-05-08 19:04 44.64994 10.84995 37408 ft 419 kts 221°
2026-05-08 19:04 44.62654 10.82560 37143 ft 418 kts 221°
2026-05-08 19:04 44.60313 10.80129 36872 ft 418 kts 221°
2026-05-08 19:04 44.57976 10.77708 36618 ft 418 kts 221°
2026-05-08 19:05 44.55638 10.75291 36275 ft 417 kts 221°
2026-05-08 19:05 44.53299 10.72875 35576 ft 418 kts 222°
2026-05-08 19:05 44.50959 10.70453 34862 ft 419 kts 222°
2026-05-08 19:05 44.48618 10.68030 34120 ft 420 kts 223°
2026-05-08 19:06 44.46280 10.65616 33589 ft 414 kts 223°
2026-05-08 19:06 44.43973 10.63243 33099 ft 408 kts 223°
2026-05-08 19:06 44.41701 10.60913 32605 ft 403 kts 222°
2026-05-08 19:06 44.39449 10.58600 32121 ft 398 kts 223°
2026-05-08 19:07 44.37229 10.56319 31627 ft 394 kts 223°
2026-05-08 19:07 44.35027 10.54062 31130 ft 391 kts 223°
2026-05-08 19:07 44.32846 10.51828 30652 ft 388 kts 223°
2026-05-08 19:07 44.30682 10.49605 30163 ft 384 kts 223°
2026-05-08 19:08 44.28539 10.47405 29639 ft 381 kts 222°
2026-05-08 19:08 44.26407 10.45226 29176 ft 377 kts 222°
2026-05-08 19:08 44.24302 10.43080 28695 ft 374 kts 221°
2026-05-08 19:08 44.22219 10.40930 28219 ft 370 kts 224°
2026-05-08 19:09 44.20444 10.38409 27777 ft 360 kts 237°
2026-05-08 19:09 44.19175 10.35453 27339 ft 353 kts 249°
2026-05-08 19:09 44.18440 10.32222 26907 ft 348 kts 261°
2026-05-08 19:09 44.18241 10.28879 26465 ft 345 kts 272°
2026-05-08 19:10 44.18572 10.25585 26044 ft 343 kts 284°
2026-05-08 19:10 44.19238 10.22406 25637 ft 341 kts 285°
2026-05-08 19:10 44.19902 10.19247 25226 ft 339 kts 285°
2026-05-08 19:10 44.20551 10.16122 24838 ft 337 kts 285°
2026-05-08 19:11 44.21204 10.12957 24431 ft 337 kts 285°
2026-05-08 19:11 44.21849 10.09821 23979 ft 338 kts 285°
2026-05-08 19:11 44.22506 10.06646 23404 ft 341 kts 285°
2026-05-08 19:11 44.23162 10.03491 22948 ft 338 kts 286°
2026-05-08 19:12 44.23813 10.00356 22522 ft 335 kts 285°
2026-05-08 19:12 44.24455 9.97248 22098 ft 332 kts 285°
2026-05-08 19:12 44.25092 9.94155 21665 ft 330 kts 285°
2026-05-08 19:12 44.25725 9.91079 21219 ft 328 kts 285°
2026-05-08 19:13 44.26350 9.88025 20773 ft 327 kts 286°
2026-05-08 19:13 44.26973 9.84977 20328 ft 326 kts 285°
2026-05-08 19:13 44.27593 9.81943 19879 ft 326 kts 286°
2026-05-08 19:13 44.28216 9.78902 19427 ft 326 kts 286°
2026-05-08 19:14 44.28838 9.75856 18979 ft 326 kts 286°
2026-05-08 19:14 44.29459 9.72808 18524 ft 327 kts 286°
2026-05-08 19:14 44.30079 9.69761 18033 ft 327 kts 286°
2026-05-08 19:14 44.30697 9.66707 17563 ft 326 kts 286°
2026-05-08 19:15 44.31308 9.63675 17110 ft 324 kts 286°
2026-05-08 19:15 44.31918 9.60656 16645 ft 322 kts 285°
2026-05-08 19:15 44.32527 9.57643 16202 ft 321 kts 285°
2026-05-08 19:15 44.33126 9.54649 15753 ft 320 kts 285°
2026-05-08 19:16 44.33704 9.51645 15256 ft 321 kts 281°
2026-05-08 19:16 44.33650 9.48542 14648 ft 325 kts 254°
2026-05-08 19:16 44.32649 9.45766 14081 ft 328 kts 231°
2026-05-08 19:16 44.30946 9.43671 13564 ft 328 kts 210°
2026-05-08 19:17 44.28839 9.42486 13008 ft 328 kts 198°
2026-05-08 19:17 44.26670 9.41469 12493 ft 327 kts 200°
2026-05-08 19:17 44.24557 9.40324 11992 ft 325 kts 203°
2026-05-08 19:17 44.22497 9.39042 11512 ft 323 kts 206°
2026-05-08 19:18 44.20495 9.37632 11038 ft 322 kts 208°
2026-05-08 19:18 44.18557 9.36090 10592 ft 319 kts 211°
2026-05-08 19:18 44.16696 9.34444 10205 ft 315 kts 214°
2026-05-08 19:18 44.14939 9.32709 10078 ft 303 kts 217°
2026-05-08 19:19 44.13314 9.30941 9920 ft 292 kts 219°
2026-05-08 19:19 44.11799 9.29067 9442 ft 293 kts 229°
2026-05-08 19:19 44.10893 9.26601 9140 ft 284 kts 258°
2026-05-08 19:19 44.10954 9.23889 8528 ft 287 kts 288°
2026-05-08 19:20 44.12021 9.21570 8111 ft 287 kts 318°
2026-05-08 19:20 44.12549 9.20987 7953 ft 288 kts 326°
2026-05-08 19:20 44.15456 9.18725 7338 ft 284 kts 330°
2026-05-08 19:20 44.17105 9.17260 6747 ft 281 kts 317°
2026-05-08 19:21 44.18565 9.15407 6219 ft 285 kts 326°
2026-05-08 19:21 44.20332 9.14258 5938 ft 279 kts 342°
2026-05-08 19:21 44.22198 9.13571 5344 ft 277 kts 347°
2026-05-08 19:21 44.24076 9.12988 4758 ft 277 kts 347°
2026-05-08 19:22 44.25932 9.12354 4529 ft 270 kts 345°
2026-05-08 19:22 44.27695 9.11660 4511 ft 255 kts 343°
2026-05-08 19:22 44.29339 9.10939 4434 ft 243 kts 342°
2026-05-08 19:22 44.30890 9.10250 4330 ft 229 kts 341°
2026-05-08 19:23 44.32360 9.09576 4080 ft 209 kts 341°
2026-05-08 19:23 44.33656 9.08952 3941 ft 184 kts 339°
2026-05-08 19:23 44.34804 9.08313 3663 ft 173 kts 331°
2026-05-08 19:23 44.35723 9.07290 3313 ft 169 kts 311°
2026-05-08 19:24 44.36447 9.06009 2980 ft 163 kts 303°
2026-05-08 19:24 44.36958 9.04645 2782 ft 157 kts 291°
2026-05-08 19:24 44.37330 9.03232 2679 ft 153 kts 288°
2026-05-08 19:24 44.37620 9.01838 2555 ft 144 kts 287°
2026-05-08 19:25 44.37893 9.00524 2310 ft 137 kts 288°
2026-05-08 19:25 44.38134 8.99260 2022 ft 136 kts 285°
2026-05-08 19:25 44.38378 8.97978 1914 ft 136 kts 287°
2026-05-08 19:25 44.38615 8.96686 1778 ft 137 kts 287°
2026-05-08 19:26 44.38838 8.95401 1493 ft 137 kts 287°
2026-05-08 19:26 44.39051 8.94103 1267 ft 137 kts 287°
2026-05-08 19:26 44.39310 8.92826 1152 ft 136 kts 290°
2026-05-08 19:26 44.39599 8.91580 906 ft 134 kts 291°
2026-05-08 19:27 44.39889 8.90353 729 ft 134 kts 291°
2026-05-08 19:27 44.40177 8.89107 577 ft 134 kts 289°
2026-05-08 19:27 44.40441 8.87862 331 ft 133 kts 288°
2026-05-08 19:27 44.40697 8.86613 196 ft 136 kts 288°
2026-05-08 19:28 44.40959 8.85368 29 ft 127 kts 288°
2026-05-08 19:28 44.41165 8.84315 21 ft 88 kts 288°
2026-05-08 19:28 44.41276 8.83788 20 ft 37 kts 285°
2026-05-08 19:28 44.41343 8.83439 23 ft 38 kts 287°
2026-05-08 19:29 44.41408 8.83174 21 ft 23 kts 307°
2026-05-08 19:29 44.41452 8.83120 22 ft 0 kts 319°
2026-05-08 19:29 44.41463 8.83107 22 ft 4 kts 320°
2026-05-08 19:30 44.41496 8.83092 21 ft 6 kts
2026-05-08 19:30 44.41538 8.83132 22 ft 8 kts 77°
2026-05-08 19:30 44.41536 8.83218 21 ft 10 kts 102°
2026-05-08 19:30 44.41516 8.83330 20 ft 13 kts 106°
2026-05-08 19:31 44.41490 8.83461 20 ft 6 kts 105°
2026-05-08 19:31 44.41477 8.83531 20 ft 9 kts 105°
2026-05-08 19:31 44.41457 8.83630 20 ft 12 kts 105°
2026-05-08 19:31 44.41432 8.83760 20 ft 16 kts 105°
2026-05-08 19:32 44.41406 8.83896 20 ft 8 kts 105°
2026-05-08 19:32 44.41388 8.83982 20 ft 11 kts 105°
2026-05-08 19:32 44.41366 8.84099 20 ft 14 kts 105°
2026-05-08 19:32 44.41341 8.84224 22 ft 7 kts 105°
2026-05-08 19:33 44.41326 8.84301 22 ft 10 kts 105°
2026-05-08 19:33 44.41321 8.84405 20 ft 12 kts 70°
2026-05-08 19:33 44.41374 8.84514 20 ft 15 kts 53°
2026-05-08 19:33 44.41410 8.84589 20 ft 8 kts 73°
2026-05-08 19:34 44.41403 8.84682 20 ft 11 kts 104°
2026-05-08 19:34 44.41383 8.84793 22 ft 0 kts 103°
2026-05-08 19:34 44.41383 8.84806 20 ft 3 kts 87°
2026-05-08 19:34 44.41393 8.84843 21 ft 5 kts 67°
2026-05-08 19:35 44.41413 8.84905 20 ft 9 kts 62°
2026-05-08 19:35 44.41426 8.84937 20 ft 2 kts 60°
2026-05-08 19:35 44.41432 8.84951 20 ft 0 kts 59°